Location: Newark
(43.9494°N, 6.8108°E)
Time: 00:38:36
(UTC+00:00)

A-11 Canister half - Pass Details

Date: 27 October 2019
Orbit: 1514 x 1686 km, 47.2° (Epoch: 15 November)

Event Time Altitude Azimuth Distance (km) Brightness Sun altitude
Rises 07:23:06 0° 292° (WNW) 4,791 10.9 12.4°
Reaches altitude 10° 07:27:00 10° 280° (W) 3,775 10.5 13.0°
Maximum altitude 07:33:58 24° 232° (SW) 2,799 10.3 14.1°
Drops below altitude 10° 07:40:50 10° 183° (S) 3,682 11.5 15.1°
Sets 07:44:36 0° 170° (S) 4,648 12.3 15.6°
